AXM122 WMKL-WMKP

Flight info

Callsign AXM122
Flight time 0h 26m
Altitude 11000
Route KAPKO1B KAPKO DCT OMBOK
Aircraft A320/M-SDE3FGHIRWY/LB1

Departure

Time 2026-05-09 00:56
Airport Langkawi International Airport (WMKL)

Arrival

Time 2026-05-09 01:22
Airport Penang International Airport (WMKP)
Time Latitude Longitude Altitude Speed Heading
2026-05-09 00:35 6.33920 99.73140 32 ft 0 kts 303°
2026-05-09 00:48 6.33906 99.73160 32 ft 4 kts 313°
2026-05-09 00:48 6.33886 99.73177 32 ft 4 kts 337°
2026-05-09 00:49 6.33863 99.73180 32 ft 3 kts 32°
2026-05-09 00:49 6.33858 99.73176 32 ft 0 kts 34°
2026-05-09 00:52 6.33918 99.73217 32 ft 14 kts 34°
2026-05-09 00:52 6.34001 99.73274 32 ft 17 kts 34°
2026-05-09 00:52 6.34102 99.73343 32 ft 18 kts 34°
2026-05-09 00:52 6.34155 99.73452 32 ft 19 kts 82°
2026-05-09 00:53 6.34242 99.73534 32 ft 18 kts 34°
2026-05-09 00:53 6.34351 99.73608 30 ft 20 kts 34°
2026-05-09 00:53 6.34445 99.73698 32 ft 19 kts 72°
2026-05-09 00:53 6.34444 99.73745 32 ft 0 kts 106°
2026-05-09 00:54 6.34441 99.73754 32 ft 5 kts 112°
2026-05-09 00:54 6.34423 99.73784 31 ft 9 kts 124°
2026-05-09 00:54 6.34343 99.73801 32 ft 8 kts 217°
2026-05-09 00:54 6.34325 99.73787 32 ft 0 kts 214°
2026-05-09 00:55 6.34248 99.73734 32 ft 46 kts 214°
2026-05-09 00:55 6.33781 99.73416 31 ft 113 kts 214°
2026-05-09 00:55 6.32982 99.72870 32 ft 163 kts 214°
2026-05-09 00:55 6.31978 99.72187 426 ft 177 kts 213°
2026-05-09 00:56 6.30925 99.71519 1093 ft 181 kts 206°
2026-05-09 00:56 6.29714 99.71226 1772 ft 180 kts 178°
2026-05-09 00:56 6.28522 99.71549 2395 ft 179 kts 148°
2026-05-09 00:56 6.27463 99.72267 2835 ft 191 kts 143°
2026-05-09 00:57 6.26324 99.73103 3056 ft 215 kts 143°
2026-05-09 00:57 6.25046 99.74035 3374 ft 239 kts 144°
2026-05-09 00:57 6.23587 99.75001 3737 ft 262 kts 148°
2026-05-09 00:57 6.21989 99.75956 4391 ft 271 kts 149°
2026-05-09 00:58 6.20344 99.76906 5191 ft 275 kts 150°
2026-05-09 00:58 6.18674 99.77862 6039 ft 277 kts 149°
2026-05-09 00:58 6.16991 99.78833 6870 ft 281 kts 149°
2026-05-09 00:58 6.15290 99.79820 7647 ft 284 kts 149°
2026-05-09 00:59 6.13566 99.80825 8397 ft 288 kts 149°
2026-05-09 00:59 6.11828 99.81841 9142 ft 291 kts 149°
2026-05-09 00:59 6.10070 99.82869 9848 ft 295 kts 149°
2026-05-09 00:59 6.08273 99.83921 10351 ft 308 kts 149°
2026-05-09 01:00 6.06353 99.85047 10526 ft 331 kts 149°
2026-05-09 01:00 6.04297 99.86250 10648 ft 353 kts 149°
2026-05-09 01:00 6.02116 99.87525 10856 ft 371 kts 149°
2026-05-09 01:00 5.99862 99.88843 10986 ft 381 kts 149°
2026-05-09 01:01 5.97511 99.90218 11013 ft 399 kts 149°
2026-05-09 01:01 5.95091 99.91632 11011 ft 405 kts 149°
2026-05-09 01:01 5.92651 99.93052 11010 ft 406 kts 149°
2026-05-09 01:01 5.90208 99.94473 11011 ft 406 kts 149°
2026-05-09 01:02 5.87770 99.95896 11012 ft 406 kts 149°
2026-05-09 01:02 5.85328 99.97323 11012 ft 406 kts 149°
2026-05-09 01:02 5.82887 99.98749 11011 ft 406 kts 149°
2026-05-09 01:02 5.80478 100.00155 11012 ft 406 kts 149°
2026-05-09 01:03 5.78038 100.01577 11012 ft 406 kts 149°
2026-05-09 01:03 5.75592 100.02991 11043 ft 405 kts 151°
2026-05-09 01:03 5.72999 100.04099 11043 ft 407 kts 162°
2026-05-09 01:03 5.70235 100.04705 11039 ft 407 kts 172°
2026-05-09 01:04 5.67417 100.05001 11035 ft 408 kts 173°
2026-05-09 01:04 5.64592 100.05297 11033 ft 408 kts 173°
2026-05-09 01:04 5.61783 100.05596 10845 ft 400 kts 173°
2026-05-09 01:04 5.59067 100.05887 10594 ft 385 kts 173°
2026-05-09 01:05 5.56456 100.06168 10342 ft 371 kts 173°
2026-05-09 01:05 5.53954 100.06437 10355 ft 350 kts 173°
2026-05-09 01:05 5.49356 100.06926 10375 ft 316 kts 173°
2026-05-09 01:06 5.47224 100.07151 10372 ft 301 kts 173°
2026-05-09 01:06 5.45199 100.07364 10391 ft 285 kts 173°
2026-05-09 01:06 5.43278 100.07328 10379 ft 269 kts 192°
2026-05-09 01:06 5.41600 100.06625 10374 ft 261 kts 215°
2026-05-09 01:07 5.40328 100.05342 10374 ft 261 kts 237°
2026-05-09 01:07 5.39634 100.03671 10391 ft 261 kts 259°
2026-05-09 01:07 5.39617 100.01857 10391 ft 262 kts 282°
2026-05-09 01:07 5.40285 100.00168 10377 ft 262 kts 304°
2026-05-09 01:08 5.41536 99.98858 10377 ft 261 kts 327°
2026-05-09 01:08 5.43181 99.98123 10376 ft 260 kts 349°
2026-05-09 01:08 5.44967 99.97819 10377 ft 261 kts 353°
2026-05-09 01:08 5.46768 99.97604 10375 ft 261 kts 354°
2026-05-09 01:09 5.48573 99.97417 10371 ft 260 kts 355°
2026-05-09 01:09 5.50377 99.97232 10377 ft 261 kts 355°
2026-05-09 01:09 5.52187 99.97084 10370 ft 261 kts
2026-05-09 01:09 5.53943 99.97454 10372 ft 259 kts 25°
2026-05-09 01:10 5.55429 99.98444 10382 ft 258 kts 46°
2026-05-09 01:10 5.56446 99.99905 10338 ft 256 kts 68°
2026-05-09 01:10 5.56841 100.01627 10367 ft 254 kts 89°
2026-05-09 01:10 5.56586 100.03373 10374 ft 254 kts 110°
2026-05-09 01:11 5.55716 100.04916 10200 ft 256 kts 132°
2026-05-09 01:11 5.54338 100.06014 9960 ft 253 kts 154°
2026-05-09 01:11 5.52663 100.06536 9839 ft 254 kts 169°
2026-05-09 01:11 5.50911 100.06801 9712 ft 255 kts 172°
2026-05-09 01:12 5.49149 100.06998 9587 ft 255 kts 174°
2026-05-09 01:12 5.47388 100.07174 9494 ft 254 kts 174°
2026-05-09 01:12 5.45628 100.07353 9404 ft 259 kts 173°
2026-05-09 01:12 5.43711 100.07397 9278 ft 287 kts 184°
2026-05-09 01:13 5.41701 100.07145 9150 ft 294 kts 189°
2026-05-09 01:13 5.39691 100.06757 9035 ft 294 kts 191°
2026-05-09 01:13 5.37687 100.06332 8916 ft 294 kts 191°
2026-05-09 01:13 5.35684 100.05917 8790 ft 294 kts 191°
2026-05-09 01:14 5.33678 100.05524 8442 ft 293 kts 190°
2026-05-09 01:14 5.31684 100.05155 7936 ft 290 kts 189°
2026-05-09 01:14 5.29709 100.04803 7383 ft 287 kts 189°
2026-05-09 01:14 5.27780 100.04466 6837 ft 284 kts 189°
2026-05-09 01:15 5.25841 100.04129 6299 ft 282 kts 189°
2026-05-09 01:15 5.23917 100.03798 5798 ft 280 kts 189°
2026-05-09 01:15 5.21994 100.03483 5265 ft 282 kts 185°
2026-05-09 01:15 5.20065 100.03691 4810 ft 280 kts 161°
2026-05-09 01:16 5.18420 100.04694 4455 ft 275 kts 135°
2026-05-09 01:16 5.17365 100.06221 4329 ft 261 kts 113°
2026-05-09 01:16 5.16686 100.07863 4207 ft 249 kts 112°
2026-05-09 01:17 5.15443 100.10895 3956 ft 217 kts 111°
2026-05-09 01:17 5.15111 100.12321 3763 ft 204 kts 92°
2026-05-09 01:17 5.15251 100.13664 3583 ft 186 kts 74°
2026-05-09 01:17 5.15746 100.14803 3375 ft 172 kts 58°
2026-05-09 01:18 5.16481 100.15701 3170 ft 163 kts 43°
2026-05-09 01:18 5.17309 100.16451 2967 ft 159 kts 42°
2026-05-09 01:18 5.18125 100.17188 2762 ft 157 kts 42°
2026-05-09 01:18 5.18933 100.17920 2555 ft 156 kts 42°
2026-05-09 01:19 5.19737 100.18648 2350 ft 155 kts 42°
2026-05-09 01:19 5.20536 100.19371 2142 ft 154 kts 42°
2026-05-09 01:19 5.21330 100.20090 1936 ft 153 kts 42°
2026-05-09 01:19 5.22121 100.20806 1735 ft 153 kts 42°
2026-05-09 01:20 5.22907 100.21518 1531 ft 152 kts 42°
2026-05-09 01:20 5.23690 100.22227 1333 ft 151 kts 42°
2026-05-09 01:20 5.24465 100.22929 1134 ft 150 kts 42°
2026-05-09 01:20 5.25237 100.23628 932 ft 149 kts 42°
2026-05-09 01:21 5.26009 100.24326 735 ft 149 kts 42°
2026-05-09 01:21 5.26779 100.25023 535 ft 148 kts 38°
2026-05-09 01:21 5.27549 100.25713 328 ft 149 kts 41°
2026-05-09 01:21 5.28316 100.26411 137 ft 149 kts 43°
2026-05-09 01:22 5.29061 100.27092 28 ft 135 kts 43°
2026-05-09 01:22 5.29556 100.27541 23 ft 61 kts 42°
2026-05-09 01:22 5.29791 100.27755 25 ft 35 kts 43°
2026-05-09 01:22 5.30003 100.27837 25 ft 26 kts 11°
2026-05-09 01:23 5.30126 100.27827 25 ft 13 kts 306°
2026-05-09 01:23 5.30100 100.27779 23 ft 9 kts 227°
2026-05-09 01:23 5.30016 100.27698 23 ft 19 kts 223°
2026-05-09 01:23 5.29906 100.27596 23 ft 24 kts 223°
2026-05-09 01:24 5.29777 100.27478 23 ft 26 kts 222°
2026-05-09 01:24 5.29640 100.27354 24 ft 27 kts 222°
2026-05-09 01:24 5.29495 100.27223 23 ft 29 kts 221°
2026-05-09 01:24 5.29377 100.27119 23 ft 21 kts 220°
2026-05-09 01:25 5.29267 100.27016 23 ft 22 kts 222°
2026-05-09 01:25 5.29190 100.26906 23 ft 13 kts 294°
2026-05-09 01:25 5.29213 100.26883 23 ft 8 kts 311°
2026-05-09 01:25 5.29249 100.26822 23 ft 13 kts 266°
2026-05-09 01:26 5.29196 100.26762 24 ft 11 kts 222°
2026-05-09 01:26 5.29172 100.26709 23 ft 8 kts 303°
2026-05-09 01:26 5.29201 100.26672 23 ft 6 kts 311°
2026-05-09 01:26 5.29224 100.26646 23 ft 0 kts 312°